Flag for U.S.A. Weather past 2 weeks in St. Louis, Missouri, U.S.A.

Now
93 °F

Scattered clouds.


Feels Like: 93 °F
Forecast: 70 / 91 °F
Wind: 8 mph from North

Location: Lambert-St. Louis International Airport

Current Time: Jul 31, 2015 at 6:48:10 PM

Latest Report: Jul 31, 2015 at 5:51 PM


Visibility: 10 mi

Pressure: 29.99 "Hg

Humidity: 33%

Dew point: 60 °F

Location of St. LouisLocation

Historic Weather in St. Louis — Graph

°F

St. Louis temperature yesterday

Maximum temperature yesterday: 92 °F (at 2:51 PM)
Minimum temperature yesterday: 69 °F (at 4:51 AM)
Average temperature yesterday: 81 °F

Past Weeks' High & Low Weather Summary

 TemperatureHumidityPressure
High100 °F (Jul 28, 2:51 PM)91% (Jul 20, 10:51 AM)30.15 "Hg (Jul 20, 10:51 AM)
Low69 °F (Jul 22, 5:51 AM)32% (Jul 30, 1:51 PM)29.76 "Hg (Jul 20, 5:51 PM)
Average83 °F65%29.92 "Hg
* Reported Jul 16 5:51 PM — Jul 31 5:51 PM, St. Louis, Weather by CustomWeather, © 2015

Note: Actual official high and low records may vary slightly from our data, if they occured in-between our weather recording intervals... More about our weather records

Advertising

St. Louis weather history for previous 24 hours

 ConditionsComfort  
Time TempWeatherWind HumidityBarometerVisibility
5:51 PM
Fri, Jul 31
93 °FScattered clouds.8 mph33%29.99 "Hg10 mi
4:51 PM93 °FPassing clouds.10 mph33%30.00 "Hg10 mi
3:51 PM92 °FPassing clouds.8 mph37%30.01 "Hg10 mi
2:51 PM93 °FPassing clouds.10 mph33%30.03 "Hg10 mi
1:51 PM93 °FPassing clouds.8 mph36%30.04 "Hg10 mi
12:51 PM91 °FPassing clouds.8 mph42%30.07 "Hg10 mi
11:51 AM90 °FSunny.8 mph45%30.08 "Hg10 mi
10:51 AM87 °FSunny.8 mph48%30.09 "Hg10 mi
9:51 AM85 °FSunny.6 mph53%30.09 "Hg10 mi
8:51 AM82 °FPassing clouds.7 mph56%30.10 "Hg10 mi
7:51 AM78 °FSunny.8 mph64%30.10 "Hg10 mi
6:51 AM73 °FPassing clouds.3 mph76%30.10 "Hg10 mi
5:51 AM71 °FPassing clouds.6 mph78%30.09 "Hg10 mi
4:51 AM72 °FPassing clouds.5 mph78%30.08 "Hg10 mi
3:51 AM72 °FPassing clouds.3 mph78%30.08 "Hg10 mi
2:51 AM74 °FClear.3 mph74%30.08 "Hg10 mi
1:51 AM75 °FClear.5 mph71%30.09 "Hg10 mi
12:51 AM75 °FPassing clouds.7 mph71%30.09 "Hg10 mi
11:51 PM
Thu, Jul 30
77 °FPassing clouds.5 mph66%30.08 "Hg10 mi
10:51 PM79 °FPassing clouds.6 mph65%30.09 "Hg10 mi
9:51 PM81 °FPassing clouds.3 mph54%30.08 "Hg10 mi
8:51 PM81 °FScattered clouds.3 mph54%30.07 "Hg10 mi
7:51 PM84 °FScattered clouds.6 mph48%30.07 "Hg10 mi
6:51 PM87 °FPartly sunny.7 mph43%30.07 "Hg10 mi
Weather by CustomWeather, © 2015

See weather overviewHow to use our weather pages